Погода в Надовражино

Россия / Московская область     55°54′55″N   37°06′58″E
темп.,
°C
ветер,
м/с
пор.,
м/с
влажн.,
%
обл.,
%
осадки,
мм/ч
давл.,
гПа
погр.,
м
22 апреля, чт
чт2200:00+3ююз3894100 0.0 1011262
03:00+3ю389791 0.0 1011213
06:00+2ю3109719 0.0 1012279
09:00+6ююз5983100 0.0 1013468
12:00+10ююз687394 0.0 10131054
15:00+12ююз476281 0.3 10131337
18:00+12ююз4767100 0.6 1013608
21:00+7ююв3108898 0.6 1014235
23 апреля, пт
пт2300:00+7ююв4129050 0.2 1013321
03:00+6ю4109468 0.2 1013291
06:00+6ю5149261 0.0 1013526
09:00+9ююв51483100 0.3 1012891
12:00+15ю8145755 0.3 10112236
15:00+5з2691100 2.8 1014300
18:00+7юз2387100 3.1 1013363
21:00+5юв2395100 5.2 101362
24 апреля, сб
сб2400:00+5юв1192100 2.6 1010239
03:00+2сз23100100 12.4 1008236
06:00+2сз3798100 8.3 1007380
09:00+3з4898100 9.9 1007415
12:00+6з3574100 0.8 10071180
15:00+7зсз5669100 1.7 10071288
18:00+6зюз2572100 0.6 1007361
21:00+1зюз27865 0.6 1008122
25 апреля, вс
вс2500:000з310865 0.0 1009234
03:00−1зюз38905 0.0 1009165
06:00−1зюз39935 0.0 1009345
09:00+4зюз477093 0.0 10091235
12:00+5зюз576686 0.8 10091449
15:00+6зюз6859100 1.6 10091855
18:00+4зюз6107495 0.6 10101187
21:00+1юз410835 0.6 1012388
26 апреля, пн
пн2600:00−1юз310905 0.0 1012315
03:00−2ююз39905 0.0 1012251
06:00−1ююз39905 0.0 1012387
09:00+4зюз576975 0.0 10111173
12:00+7зюз5748100 0.5 10102128
15:00+7юз4551100 0.9 10101560
18:00+5зюз247095 1.1 1009346
21:00+2зюз2283100 1.8 100923